OPS 4682 DEB, 38454

Orbit data source: Space-Track

OPS 4682 DEB, 38454 is space debris in LEO originally from a launch on Sat, 03 Apr 1965 UTC launched from the Air Force Western Test Range (AFWTR). Debris objects in space refer to the collection of defunct objects orbiting the Earth. Examples of debris include non-operational satellites, rocket bodies, and fragments generated from explosions, collisions, or faulty payload assembly.

Loading next visibility...
Identifier
38454, 1965-027FK
Orbit
LEO
Country
Flag of USUS
Related business
Manufacturer
Unknown
Mission
Spacecraft
Bus & Motor
Unknown
Mass
Unknown
Launch date (UTC)
1965-04-03 (61 years ago)
Launch vehicle
Unknown
Launch site
Air Force Western Test Range (AFWTR)
Object type
Payload
Rocket body
Debris
Shape & HBR
Unknown shape, 0.1 m
Radar Cross Section
Small (<0.1 m²)

Expand to show TLE details & history
Last TLE update: 15 hours ago

TLE from 15 hours ago
0 OPS 4682 DEB
1 38454U 65027FK  26150.57212082  .00000170  00000-0  57584-3 0  9995
2 38454  90.2428   6.6820 0032705 262.6030  97.1372 12.95315868580324
Epoch: 2026-05-30T13:43Z
TLE epoch observation values (Epoch: 2026-05-30T13:43:51.238Z)
Latitude
-0.00009°
Longitude
-87.36772°
Altitude
1,286.565 km
Speed
7.211 km/s
True Right ascension
00h 26m 43s
True Declination
0° 00' 00"
Sunlit
Object was in daylight at epoch
Visualization orbit readout
Latitude
Unknown
Longitude
Unknown
Altitude
Unknown
Speed
Unknown
Apparent Right ascension
Unknown
Apparent Declination
Unknown
Sunlit
N/A
Visualization observer readout
Local Sidereal Time
14:27:56
Azimuth
Unknown
Elevation
Unknown
Doppler factor
Unknown
Orbital elements
Apogee altitude
1,302.667 km
Perigee altitude
1,252.59 km
Semi-major axis
7,655.766 km
Eccentricity
0.00327
Inclination
90.2428°
RAAN
6.682°
Arg. of periapsis
262.603°
True anomaly
97.50888°
Mean anomaly
97.1372°
Eccentric anomaly
97.32306°
Mean motion
3.24011 °/min
Orbital period
111.11 mins
BSTAR
0.00057584
Loading maneuver chart data...
Computing Atmospheric mass density...
Loading historical data...
Loading historical data...
Loading historical data...
Loading historical data...
Loading historical data...
Loading historical data...
Loading historical data...

Documentation

Showing up to 5 results
|